Current weather by "City, St" or "zip code"  
 

Current Conditions: Caribou, Caribou Municipal Airport, ME

Fair


20.0 F

Last Updated on Oct 31 2020, 3:54 am EDT
Humidity: 81%
Wind Speed: N 0.0 mph
Barometer 30.22 in
Dewpoint: 15.1 F
Visibility: 10.00 mi
Precip: --
Heat Index: NA
Wind Chill: NA
Current conditions at:

Caribou, Caribou Municipal Airport, ME (KCAR)

Lat: 46.86722 Lon: 68.01333

Local Radar Image active severe weather and emergency alerts image image weather storm and storm spotter reports image weather observation monitoring service image
Local
Radar
Active
Alerts
Storm Reports Obs
Monitoring

Sign-up For Email & Text Message Weather Alert Notification Services



Advertise Here

Observation History for Caribou, Caribou Municipal Airport, ME


Time Wind
(mph)
Vis
(mi)
Weather Precip (in) Temperature (F) Relative
Humidity
Wind
Chill
(F)
Heat
Index
(F)
Pressure
Air Dwpt altimeter
(in)
sea level
(mb)
Rmks
3:54 am EDT N 0.0 10.00 Fair -- 20.0 15.1 81% NA NA 30.22 1024.5
2:54 am EDT N 0.0 10.00 Fair -- 23.0 16.0 74% NA NA 30.21 1024.2
1:54 am EDT NW 5.8 10.00 Fair -- 23.0 17.1 78% 16 NA 30.20 1023.7
12:54 am EDT NW 4.6 10.00 Fair -- 24.0 17.1 75% 18 NA 30.17 1023.0
11:54 pm EDT NW 6.9 10.00 Fair -- 25.0 17.1 72% 17 NA 30.16 1022.4
10:54 pm EDT 3.5 10.00 Fair -- 26.0 18.0 71% NA NA 30.13 1021.5
9:54 pm EDT NW 5.8 10.00 Fair -- 27.0 18.0 69% 20 NA 30.10 1020.6
8:54 pm EDT NW 9.2 10.00 Fair -- 28.0 17.1 63% 19 NA 30.08 1020.0
7:54 pm EDT N 6.9 10.00 Fair -- 28.0 17.1 63% 21 NA 30.06 1019.2
6:54 pm EDT N 8.1 10.00 Fair -- 29.0 18.0 63% 21 NA 30.04 1018.6
5:54 pm EDT N 9.2 10.00 Fair -- 31.0 18.0 59% 23 NA 30.02 1017.8
4:54 pm EDT N 5.8 10.00 Fair -- 33.0 17.1 52% 28 NA 30.00 1017.0
3:54 pm EDT N 12.7 10.00 Fair -- 35.0 17.1 48% 26 NA 29.98 1016.3
2:54 pm EDT N 10.4 10.00 Fair -- 35.0 17.1 48% 27 NA 29.97 1015.9
1:54 pm EDT N 12.7 10.00 Fair -- 35.0 17.1 48% 26 NA 29.97 1015.8
12:54 pm EDT N 12.7 10.00 Fair -- 33.0 16.0 49% 24 NA 29.97 1016.1
11:54 am EDT N 15.0 10.00 Fair -- 31.0 16.0 54% 20 NA 29.99 1016.6
10:54 am EDT N 9.2 10.00 Fair -- 30.0 16.0 56% 22 NA 30.00 1017.0
9:54 am EDT N 13.8 10.00 Fair -- 29.0 16.0 58% 18 NA 30.00 1017.1
8:54 am EDT N 10.4 10.00 Fair -- 26.0 15.1 63% 16 NA 29.98 1016.3
7:54 am EDT N 9.2 10.00 Fair -- 23.0 14.0 68% 13 NA 29.97 1016.1
6:54 am EDT N 8.1 10.00 Fair -- 22.0 14.0 71% 13 NA 29.95 1015.4
5:54 am EDT N 6.9 10.00 Fair -- 23.0 14.0 68% 15 NA 29.97 1016.1

Regional Weather Observation


Caribou, Caribou Municipal Airport, ME (KCAR)

Fair
20.0 F

Presque Isle, ME (KPQI)

Fair
14.0 F

Houlton, Houlton International Airport, ME (KHUL)

Fair
19.0 F

Clayton Lake, ME (K40B)

NULL
12.0 F

Millinocket, Millinocket Municipal Airport, ME (KMLT)

Fair
23.0 F

Greenville, ME (KGNR)

NULL
22.0 F